View from above orbital plane
|
View from above satellite
|
Ground track
|
The orbit data is extracted from the following two-line orbital elements,
1 00085U 61004C 21020.95141875 .00002589 00000-0 54448-3 0 9991
2 00085 38.7760 350.7502 0394347 150.2212 212.1610 14.21560698962047
Epoch (UTC): | 20 January 2021 22:50:02 |
Eccentricity: | 0.0394347 |
inclination: | 38.7760° |
perigee height: | 536 km |
apogee height: | 1104 km |
right ascension of ascending node: | 350.7502° |
argument of perigee: | 150.2212° |
revolutions per day: | 14.21560698 |
mean anomaly at epoch: | 212.1610° |
orbit number at epoch: | 96204 |
The dashed part of the orbit path shows where the satellite is in the earth's shadow,
|
|